Oxford, NC

8:09 AM EST on November 15, 2019 (GMT -0500)
Henderson-Oxford

Weather History for KHNZ - September, 2019

Change the Weather History Date:

Saturday, September 14, 2019

  Actual Average (KTDF) Record (KTDF)
Temperature  
Mean Temperature 72 °F -  
Max Temperature 80 °F 82 °F 91 °F (1970)
Min Temperature 65 °F 56 °F 38 °F (1967)
Cooling Degree Days 8    
Growing Degree Days 22 (Base 50)    
Moisture  
Dew Point 64 °F    
Average Humidity 78    
Maximum Humidity 94    
Minimum Humidity 57    
Precipitation  
Precipitation 0.00 in - - ()
Sea Level Pressure  
Sea Level Pressure 30.26 in    
Wind  
Wind Speed 0 mph (East)    
Max Wind Speed 5 mph    
Max Gust Speed -    
Visibility 10 miles    
Events      
Averages and records for this station are not official NWS values.
T = Trace of Precipitation, MM = Missing Value Source: NWS Daily Summary

Daily Weather History Graph

Daily Weather History Graph

Search for Another Location

Airport or City:

Astronomy

Sep. 14, 2019 Rise Set
Actual Time 6:55 AM EDT 7:23 PM EDT
Civil Twilight 6:29 AM EDT 7:49 PM EDT
Nautical Twilight 5:59 AM EDT 8:19 PM EDT
Astronomical Twilight 5:28 AM EDT 8:50 PM EDT
Moon 8:03 PM EDT (9/14) 7:08 AM EDT (9/14)
Length of Visible Light 13h 19m
Length of Day
12h 27m
Full, 100% of the Moon is Illuminated
Sep 14
Full
Sep 21
Last Quarter
Sep 28
New
Oct 5
First Quarter
Oct 13
Full

Hourly Weather History & Observations

Time (EDT) Temp. Heat Index Dew Point Humidity Pressure Visibility Wind Dir Wind Speed Gust Speed Precip Events Conditions
12:15 AM 67.3 °F - 63.0 °F 86% 30.31 in 10.0 mi Calm Calm - N/A   Overcast
12:35 AM 67.1 °F - 63.0 °F 87% 30.31 in 10.0 mi East 4.6 mph - N/A   Overcast
1:15 AM 66.6 °F - 63.1 °F 89% 30.30 in 10.0 mi Calm Calm - N/A   Overcast
1:35 AM 66.6 °F - 63.5 °F 90% 30.30 in 10.0 mi Calm Calm - N/A   Overcast
1:55 AM 66.4 °F - 63.5 °F 90% 30.30 in 10.0 mi Calm Calm - N/A   Overcast
2:15 AM 66.4 °F - 63.5 °F 90% 30.29 in 10.0 mi Calm Calm - N/A   Overcast
3:15 AM 66.4 °F - 63.5 °F 90% 30.28 in 10.0 mi Calm Calm - N/A   Overcast
3:35 AM 66.6 °F - 63.5 °F 90% 30.28 in 10.0 mi Calm Calm - N/A   Overcast
3:55 AM 66.6 °F - 63.1 °F 89% 30.28 in 10.0 mi Calm Calm - N/A   Overcast
4:15 AM 66.6 °F - 63.0 °F 88% 30.28 in 10.0 mi Calm Calm - N/A   Overcast
4:35 AM 66.6 °F - 63.0 °F 88% 30.28 in 10.0 mi Calm Calm - N/A   Overcast
5:15 AM 66.2 °F - 63.5 °F 91% 30.28 in 10.0 mi Calm Calm - N/A   Overcast
5:35 AM 66.2 °F - 63.3 °F 90% 30.29 in 10.0 mi Calm Calm - N/A   Overcast
5:55 AM 65.7 °F - 63.5 °F 93% 30.29 in 7.0 mi Calm Calm - N/A   Light Drizzle
6:15 AM 65.5 °F - 63.7 °F 94% 30.29 in 10.0 mi Calm Calm - N/A   Overcast
6:35 AM 65.5 °F - 63.7 °F 94% 30.29 in 10.0 mi Calm Calm - N/A   Overcast
7:15 AM 65.5 °F - 63.7 °F 94% 30.29 in 7.0 mi Calm Calm - N/A   Overcast
7:35 AM 65.5 °F - 63.9 °F 94% 30.30 in 7.0 mi Calm Calm - N/A   Overcast
7:55 AM 65.7 °F - 63.7 °F 93% 30.30 in 7.0 mi Calm Calm - N/A   Overcast
8:15 AM 65.8 °F - 63.9 °F 93% 30.30 in 7.0 mi Calm Calm - N/A   Overcast
9:15 AM 67.5 °F - 63.5 °F 87% 30.31 in 10.0 mi Calm Calm - N/A   Overcast
9:35 AM 69.3 °F - 63.7 °F 82% 30.31 in 10.0 mi Calm Calm - N/A   Overcast
9:55 AM 70.5 °F - 63.9 °F 79% 30.31 in 10.0 mi Calm Calm - N/A   Overcast
10:15 AM 73.4 °F - 64.4 °F 73% 30.30 in 10.0 mi Calm Calm - N/A   Overcast
10:35 AM 74.7 °F - 64.8 °F 71% 30.30 in 10.0 mi Calm Calm - N/A   Scattered Clouds
11:15 AM 75.6 °F - 65.3 °F 70% 30.30 in 10.0 mi Calm Calm - N/A   Mostly Cloudy
11:35 AM 76.8 °F - 65.1 °F 67% 30.29 in 10.0 mi Calm Calm - N/A   Overcast
11:55 AM 76.8 °F - 64.8 °F 66% 30.29 in 10.0 mi Calm Calm - N/A   Overcast
12:15 PM 77.5 °F - 64.2 °F 63% 30.29 in 10.0 mi Calm Calm - N/A   Overcast
12:35 PM 77.4 °F - 63.9 °F 63% 30.28 in 10.0 mi Calm Calm - N/A   Overcast
1:15 PM 76.8 °F - 64.2 °F 65% 30.27 in 10.0 mi Calm Calm - N/A   Overcast
1:35 PM 77.4 °F - 64.2 °F 64% 30.26 in 10.0 mi Calm Calm - N/A   Overcast
1:55 PM 77.4 °F - 64.9 °F 65% 30.26 in 10.0 mi Calm Calm - N/A   Overcast
2:15 PM 78.1 °F - 64.6 °F 63% 30.25 in 10.0 mi Calm Calm - N/A   Overcast
2:35 PM 78.6 °F - 64.8 °F 62% 30.25 in 10.0 mi Calm Calm - N/A   Overcast
3:15 PM 80.1 °F 81.8 °F 64.6 °F 59% 30.23 in 10.0 mi Calm Calm - N/A   Overcast
3:35 PM 80.1 °F 81.8 °F 64.4 °F 59% 30.23 in 10.0 mi Calm Calm - N/A   Mostly Cloudy
3:55 PM 80.2 °F 82.0 °F 64.8 °F 59% 30.22 in 10.0 mi Calm Calm - N/A   Mostly Cloudy
4:15 PM 79.0 °F - 64.4 °F 61% 30.21 in 10.0 mi Calm Calm - N/A   Mostly Cloudy
4:35 PM 79.2 °F - 64.2 °F 60% 30.21 in 10.0 mi Calm Calm - N/A   Overcast
5:15 PM 79.5 °F - 64.0 °F 59% 30.20 in 10.0 mi Calm Calm - N/A   Mostly Cloudy
5:35 PM 79.7 °F - 64.2 °F 59% 30.19 in 10.0 mi Calm Calm - N/A   Scattered Clouds
5:55 PM 79.7 °F - 64.0 °F 59% 30.19 in 10.0 mi Calm Calm - N/A   Scattered Clouds
6:15 PM 79.7 °F - 63.3 °F 57% 30.19 in 10.0 mi Calm Calm - N/A   Clear
6:35 PM 78.8 °F - 64.0 °F 60% 30.20 in 10.0 mi Calm Calm - N/A   Clear
7:15 PM 76.5 °F - 64.6 °F 67% 30.21 in 10.0 mi Calm Calm - N/A   Clear
7:35 PM 75.2 °F - 65.1 °F 71% 30.21 in 10.0 mi Calm Calm - N/A   Clear
8:35 PM 70.9 °F - 65.3 °F 82% 30.20 in 10.0 mi Calm Calm - N/A   Clear
9:15 PM 70.3 °F - 65.5 °F 85% 30.20 in 10.0 mi Calm Calm - N/A   Clear
9:35 PM 69.3 °F - 65.3 °F 87% 30.20 in 10.0 mi Calm Calm - N/A   Clear
9:55 PM 68.4 °F - 65.3 °F 90% 30.20 in 10.0 mi Calm Calm - N/A   Clear
10:15 PM 68.7 °F - 65.5 °F 89% 30.20 in 10.0 mi Calm Calm - N/A   Clear
10:35 PM 67.8 °F - 65.3 °F 92% 30.20 in 10.0 mi Calm Calm - N/A   Clear
11:15 PM 67.8 °F - 65.3 °F 92% 30.19 in 10.0 mi Calm Calm - N/A   Clear
11:35 PM 67.5 °F - 65.3 °F 93% 30.19 in 10.0 mi Calm Calm - N/A   Clear
11:55 PM 67.6 °F - 65.3 °F 92% 30.19 in 10.0 mi Calm Calm - N/A   Clear